Previsão horária em Alosno

Hoje, 18 Janeiro, Segunda-feira

Tempo Temperatura Precipitação Vento Pressão Humidade
00:00 +7°C° 0 mm 1 m/s 757 mmHg 70%
01:00 +7°C° 0 mm 1 m/s 756 mmHg 68%
02:00 +6°C° 0 mm 1 m/s 756 mmHg 67%
03:00 +6°C° 0 mm 1 m/s 756 mmHg 65%
04:00 +6°C° 0 mm 1 m/s 756 mmHg 64%
05:00 +6°C° 0 mm 1 m/s 755 mmHg 63%
06:00 +5°C° 0 mm 1 m/s 756 mmHg 62%
07:00 +6°C° 0 mm 1 m/s 756 mmHg 61%
08:00 +8°C° 0 mm 1 m/s 756 mmHg 61%
09:00 +9°C° 0 mm 1 m/s 756 mmHg 60%
10:00 +11°C° 0 mm 1 m/s 756 mmHg 55%
11:00 +13°C° 0 mm 2 m/s 757 mmHg 50%
12:00 +14°C° 0 mm 3 m/s 757 mmHg 45%
13:00 +14°C° 0 mm 3 m/s 756 mmHg 48%
14:00 +14°C° 0 mm 3 m/s 755 mmHg 50%
15:00 +14°C° 0 mm 3 m/s 755 mmHg 53%
16:00 +13°C° 0 mm 2 m/s 755 mmHg 64%
17:00 +10°C° 0 mm 2 m/s 755 mmHg 74%
18:00 +9°C° 0 mm 1 m/s 755 mmHg 85%
19:00 +9°C° 0 mm 1 m/s 755 mmHg 87%
20:00 +8°C° 0 mm 1 m/s 756 mmHg 89%
21:00 +8°C° 0 mm 1 m/s 756 mmHg 90%
22:00 +8°C° 0 mm 1 m/s 756 mmHg 92%
23:00 +8°C° 0 mm 1 m/s 756 mmHg 93%

Amanhã, 19 Janeiro, Terça-feira

Tempo Temperatura Precipitação Vento Pressão Humidade
00:00 +7°C° 0 mm 2 m/s 757 mmHg 94%
01:00 +7°C° 0 mm 2 m/s 756 mmHg 94%
02:00 +7°C° 0 mm 2 m/s 756 mmHg 93%
03:00 +8°C° 0 mm 2 m/s 755 mmHg 93%
04:00 +8°C° 0 mm 2 m/s 755 mmHg 92%
05:00 +8°C° 0 mm 2 m/s 755 mmHg 92%
06:00 +8°C° 0 mm 2 m/s 755 mmHg 92%
07:00 +8°C° 0 mm 2 m/s 755 mmHg 90%
08:00 +9°C° 0 mm 3 m/s 755 mmHg 88%
09:00 +9°C° 0 mm 3 m/s 755 mmHg 86%
10:00 +10°C° 0 mm 3 m/s 755 mmHg 83%
11:00 +11°C° 0 mm 4 m/s 755 mmHg 80%
12:00 +12°C° 0 mm 4 m/s 755 mmHg 77%
13:00 +13°C° 0 mm 4 m/s 754 mmHg 75%
14:00 +13°C° 0 mm 4 m/s 754 mmHg 74%
15:00 +13°C° 0 mm 4 m/s 753 mmHg 72%
16:00 +13°C° 0 mm 4 m/s 753 mmHg 75%
17:00 +12°C° 0 mm 3 m/s 752 mmHg 78%
18:00 +11°C° 0 mm 3 m/s 752 mmHg 80%
19:00 +11°C° 0 mm 3 m/s 752 mmHg 81%
20:00 +11°C° 0 mm 3 m/s 752 mmHg 82%
21:00 +11°C° 0 mm 4 m/s 752 mmHg 83%
22:00 +11°C° 0 mm 4 m/s 751 mmHg 83%
23:00 +11°C° 0 mm 4 m/s 751 mmHg 82%

Depois de amanhã, 20 Janeiro, Quarta-feira

Tempo Temperatura Precipitação Vento Pressão Humidade
00:00 +12°C° 0 mm 5 m/s 750 mmHg 81%
01:00 +12°C° 0 mm 5 m/s 750 mmHg 82%
02:00 +11°C° 0 mm 6 m/s 749 mmHg 84%
03:00 +11°C° 0 mm 6 m/s 748 mmHg 85%
04:00 +11°C° 0.7 mm 6 m/s 747 mmHg 87%
05:00 +11°C° 0.7 mm 7 m/s 747 mmHg 89%
06:00 +11°C° 0.7 mm 7 m/s 746 mmHg 91%
07:00 +11°C° 4.4 mm 7 m/s 746 mmHg 92%
08:00 +12°C° 4.4 mm 7 m/s 746 mmHg 92%
09:00 +12°C° 4.4 mm 7 m/s 746 mmHg 93%
10:00 +14°C° 0.5 mm 7 m/s 746 mmHg 87%
11:00 +15°C° 0.5 mm 7 m/s 746 mmHg 81%
12:00 +16°C° 0.5 mm 6 m/s 746 mmHg 75%
13:00 +15°C° 0.2 mm 7 m/s 746 mmHg 74%
14:00 +15°C° 0.2 mm 8 m/s 746 mmHg 72%
15:00 +15°C° 0.2 mm 8 m/s 745 mmHg 71%
16:00 +14°C° 0.1 mm 7 m/s 746 mmHg 74%
17:00 +11°C° 0.1 mm 6 m/s 746 mmHg 77%
18:00 +11°C° 0.1 mm 4 m/s 747 mmHg 80%
19:00 +11°C° 0 mm 4 m/s 747 mmHg 84%
20:00 +10°C° 0 mm 3 m/s 748 mmHg 87%
21:00 +9°C° 0 mm 3 m/s 748 mmHg 91%
22:00 +9°C° 0 mm 3 m/s 748 mmHg 92%
23:00 +9°C° 0 mm 3 m/s 749 mmHg 93%

21 Janeiro, Quinta-feira

Tempo Temperatura Precipitação Vento Pressão Humidade
00:00 +9°C° 0 mm 3 m/s 749 mmHg 93%
01:00 +9°C° 0 mm 3 m/s 749 mmHg 94%
02:00 +9°C° 0 mm 2 m/s 749 mmHg 94%
03:00 +9°C° 0 mm 2 m/s 750 mmHg 94%
04:00 +9°C° 0 mm 2 m/s 750 mmHg 94%
05:00 +9°C° 0 mm 2 m/s 750 mmHg 94%
06:00 +9°C° 0 mm 2 m/s 750 mmHg 94%
07:00 +10°C° 0 mm 2 m/s 750 mmHg 94%
08:00 +10°C° 0 mm 2 m/s 751 mmHg 93%
09:00 +11°C° 0 mm 3 m/s 751 mmHg 93%
10:00 +13°C° 0 mm 5 m/s 751 mmHg 87%
11:00 +15°C° 0 mm 7 m/s 751 mmHg 80%
12:00 +16°C° 0 mm 9 m/s 751 mmHg 74%
13:00 +16°C° 0.1 mm 9 m/s 750 mmHg 76%
14:00 +16°C° 0.1 mm 9 m/s 750 mmHg 77%
15:00 +15°C° 0.1 mm 9 m/s 749 mmHg 79%
16:00 +15°C° 0.8 mm 8 m/s 749 mmHg 84%
17:00 +14°C° 0.8 mm 6 m/s 749 mmHg 89%
18:00 +14°C° 0.8 mm 5 m/s 749 mmHg 95%
19:00 +13°C° 0.1 mm 5 m/s 750 mmHg 95%
20:00 +12°C° 0.1 mm 4 m/s 750 mmHg 95%
21:00 +12°C° 0.1 mm 3 m/s 751 mmHg 96%
22:00 +11°C° 0 mm 3 m/s 751 mmHg 96%
23:00 +11°C° 0 mm 3 m/s 751 mmHg 96%

22 Janeiro, Sexta-feira

Tempo Temperatura Precipitação Vento Pressão Humidade
00:00 +10°C° 0 mm 2 m/s 751 mmHg 96%
01:00 +10°C° 0 mm 2 m/s 751 mmHg 96%
02:00 +10°C° 0 mm 2 m/s 751 mmHg 96%
03:00 +9°C° 0 mm 2 m/s 751 mmHg 96%
04:00 +10°C° 0 mm 2 m/s 750 mmHg 96%
05:00 +10°C° 0 mm 2 m/s 750 mmHg 96%
06:00 +10°C° 0 mm 2 m/s 750 mmHg 96%
07:00 +11°C° 0.1 mm 3 m/s 750 mmHg 95%
08:00 +12°C° 0.1 mm 4 m/s 751 mmHg 93%
09:00 +13°C° 0.1 mm 5 m/s 751 mmHg 92%
10:00 +13°C° 0.3 mm 6 m/s 751 mmHg 88%
11:00 +14°C° 0.3 mm 7 m/s 751 mmHg 83%
12:00 +15°C° 0.3 mm 8 m/s 752 mmHg 79%
13:00 +15°C° 0.1 mm 8 m/s 752 mmHg 73%
14:00 +15°C° 0.1 mm 7 m/s 751 mmHg 68%
15:00 +15°C° 0.1 mm 7 m/s 751 mmHg 62%
16:00 +13°C° 0 mm 6 m/s 752 mmHg 68%
17:00 +12°C° 0 mm 5 m/s 752 mmHg 73%
18:00 +10°C° 0 mm 4 m/s 753 mmHg 79%
19:00 +9°C° 0 mm 3 m/s 753 mmHg 82%
20:00 +8°C° 0 mm 3 m/s 754 mmHg 86%
21:00 +7°C° 0 mm 2 m/s 755 mmHg 89%
22:00 +7°C° 0 mm 2 m/s 755 mmHg 90%
23:00 +8°C° 0 mm 1 m/s 755 mmHg 90%

23 Janeiro, Sábado

Tempo Temperatura Precipitação Vento Pressão Humidade
00:00 +7°C° 0 mm 1 m/s 755 mmHg 90%
01:00 +7°C° 0 mm 1 m/s 755 mmHg 90%
02:00 +7°C° 0 mm 1 m/s 755 mmHg 90%
03:00 +7°C° 0 mm 1 m/s 755 mmHg 90%
04:00 +6°C° 0 mm 1 m/s 754 mmHg 90%
05:00 +5°C° 0 mm 0 m/s 754 mmHg 91%
06:00 +5°C° 0 mm 0 m/s 754 mmHg 91%
07:00 +7°C° 0 mm 1 m/s 755 mmHg 88%
08:00 +8°C° 0 mm 1 m/s 755 mmHg 86%
09:00 +10°C° 0 mm 1 m/s 755 mmHg 84%
10:00 +10°C° 0 mm 2 m/s 755 mmHg 78%
11:00 +12°C° 0 mm 3 m/s 755 mmHg 73%
12:00 +14°C° 0 mm 3 m/s 755 mmHg 68%
13:00 +14°C° 0 mm 3 m/s 754 mmHg 67%
14:00 +15°C° 0 mm 4 m/s 754 mmHg 66%
15:00 +15°C° 0 mm 4 m/s 753 mmHg 66%
16:00 +14°C° 0 mm 4 m/s 753 mmHg 71%
17:00 +13°C° 0 mm 3 m/s 753 mmHg 77%
18:00 +11°C° 0 mm 3 m/s 753 mmHg 82%
19:00 +11°C° 0 mm 3 m/s 753 mmHg 85%
20:00 +10°C° 0 mm 2 m/s 753 mmHg 87%
21:00 +10°C° 0 mm 2 m/s 753 mmHg 90%
22:00 +10°C° 0 mm 2 m/s 753 mmHg 91%
23:00 +12°C° 0 mm 2 m/s 753 mmHg 92%
Mostrar mais

Necessitamos do seu Consentimento

A Meteoprog e os seus Fornecedores de Serviços podem armazenar e aceder a dados pessoais como cookies, identificadores do dispositivo ou outras tecnologias semelhantes existentes no seu dispositivo e processar estes dados para personalizar conteúdos e anúncios, assim como funcionalidades nas redes sociais e análise de tráfego.

  • Armazenar e/ou aceder a informações no seu dispositivo

    Os cookies, identificadores do dispositivo ou outras informações podem ser armazenados ou acedidos no seu dispositivo, para os fins acima indicados.

  • Anúncios e conteúdos personalizados, medição de anúncios e conteúdos, dados sobre o público-alvo e desenvolvimento de produtos

    Os anúncios e os conteúdos podem ser personalizados com base num perfil. Podem ser adicionados dados adicionais para uma maior personalização dos anúncios e dos conteúdos. A eficácia dos anúncios e dos conteúdos pode ser medida. Podem ser obtidas informações sobre o público que visualizou os anúncios e os conteúdos. Estes dados podem ser usados para desenvolver ou melhorar sistemas, softwares ou a experiência do utilizador.

Ao clicar em "Eu concordo”, permitirá o uso de cookies, identificadores do dispositivo e web beacons mencionados ou outras tecnologias semelhantes. As configurações do navegador do seu dispositivo podem ser alteradas.

Para certos fins, podem ser invocados interesses legítimos ao invés de consentimento. Pode ler mais informação sobre este assunto na nossa Política de Privacidade e Cookies.